Location: Bodest
(46.3000°N, 22.5667°E)
Time: 10:26:15
(UTC+00:00)

Feng Yun 1-1 Rocket - Pass Details

Date: 16 October 2021
Orbit: 830 x 933 km, 99.2° (Epoch: 02 December)

Event Time Altitude Azimuth Distance (km) Brightness Sun altitude
Rises 17:02:32 0° 164° (SSE) 3,387 7.2 -14.8°
Reaches altitude 10° 17:04:51 10° 164° (SSE) 2,467 6.4 -15.2°
Maximum altitude 17:10:20 87° 255° (WSW) 871 4.2 -16.1°
Drops below altitude 10° 17:16:01 10° 345° (NNW) 2,549 6.9 -17.1°
Sets 17:18:27 0° 345° (NNW) 3,509 7.7 -17.5°
